User: anonymous   Login
Location: Riverside Cemetery
(38.3047°N, 99.7773°W)
Time: 16:32:16
(UTC+00:00)
Language:

SAR-Lupe-4 - Orbit

View from above orbital plane
View from above orbital plane
View from above satellite
View from above satellite

Ground track
Ground track

The orbit data is extracted from the following two-line orbital elements,

1 32750U 08014A   20327.73081704 0.00001400  00000-0  51958-4 0    04
2 32750  98.2100 147.9861 0002433  33.5819 326.4179 15.27612711    01
Epoch (UTC): 22 November 2020 17:32:22
Eccentricity: 0.0002433
inclination: 98.2100°
perigee height: 481 km
apogee height: 484 km
right ascension of ascending node: 147.9861°
argument of perigee: 33.5819°
revolutions per day: 15.27612711
mean anomaly at epoch: 326.4179°
orbit number at epoch: 0

The dashed part of the orbit path shows where the satellite is in the earth's shadow,  

DLR